AFL2845 URSS-UGTB

Flight info

Callsign AFL2845
Flight time 0h 51m
Altitude 35000
Route TABAN1S TABAN B147 BANUT L850 TAGAR DCT GIMUR
Aircraft A20N/M-SDE2E3FGHIRWXY/LB1

Departure

Time 2026-04-23 16:36
Airport Sochi International Airport (URSS)

Arrival

Time 2026-04-23 17:28
Airport Tbilisi International Airport (UGTB)
Time Latitude Longitude Altitude Speed Heading
2026-04-23 16:17 43.45002 39.94944 57 ft 0 kts 334°
2026-04-23 16:30 43.44994 39.94949 57 ft 2 kts 334°
2026-04-23 16:30 43.44981 39.94958 57 ft 2 kts 334°
2026-04-23 16:30 43.44967 39.94967 57 ft 2 kts 334°
2026-04-23 16:30 43.44953 39.94976 57 ft 2 kts 335°
2026-04-23 16:31 43.44940 39.94984 57 ft 2 kts 334°
2026-04-23 16:31 43.44926 39.94993 57 ft 2 kts 335°
2026-04-23 16:31 43.44913 39.95002 57 ft 2 kts 334°
2026-04-23 16:31 43.44902 39.95005 57 ft 1 kts 23°
2026-04-23 16:32 43.44895 39.94998 56 ft 0 kts 60°
2026-04-23 16:32 43.44893 39.94990 56 ft 1 kts 68°
2026-04-23 16:32 43.44892 39.94987 56 ft 0 kts 65°
2026-04-23 16:34 43.44902 39.95016 57 ft 10 kts 64°
2026-04-23 16:34 43.44942 39.95126 58 ft 14 kts 62°
2026-04-23 16:34 43.44983 39.95248 60 ft 13 kts 68°
2026-04-23 16:34 43.44968 39.95339 62 ft 1 kts 151°
2026-04-23 16:35 43.44962 39.95344 62 ft 2 kts 152°
2026-04-23 16:35 43.44908 39.95352 62 ft 13 kts 208°
2026-04-23 16:35 43.44842 39.95194 59 ft 44 kts 246°
2026-04-23 16:36 43.44591 39.94462 51 ft 120 kts 245°
2026-04-23 16:36 43.44162 39.93198 140 ft 165 kts 243°
2026-04-23 16:36 43.43612 39.91670 510 ft 185 kts 245°
2026-04-23 16:36 43.43109 39.89990 1018 ft 198 kts 252°
2026-04-23 16:37 43.42781 39.88033 1511 ft 224 kts 261°
2026-04-23 16:37 43.42525 39.85831 2026 ft 241 kts 259°
2026-04-23 16:37 43.42204 39.83609 2530 ft 233 kts 258°
2026-04-23 16:37 43.41876 39.81460 3041 ft 230 kts 258°
2026-04-23 16:38 43.41539 39.79323 3552 ft 227 kts 258°
2026-04-23 16:38 43.41208 39.77253 4057 ft 223 kts 257°
2026-04-23 16:38 43.40875 39.75188 4567 ft 218 kts 257°
2026-04-23 16:38 43.40551 39.73199 5043 ft 214 kts 257°
2026-04-23 16:39 43.40221 39.71196 5390 ft 216 kts 257°
2026-04-23 16:39 43.39895 39.69229 5536 ft 214 kts 256°
2026-04-23 16:39 43.39557 39.67205 5653 ft 218 kts 257°
2026-04-23 16:39 43.39218 39.65189 5813 ft 218 kts 254°
2026-04-23 16:40 43.38484 39.63377 5974 ft 220 kts 223°
2026-04-23 16:40 43.37131 39.62413 6171 ft 222 kts 192°
2026-04-23 16:40 43.35537 39.62267 6619 ft 237 kts 185°
2026-04-23 16:40 43.33927 39.62190 7532 ft 233 kts 185°
2026-04-23 16:41 43.32329 39.62096 8381 ft 232 kts 187°
2026-04-23 16:41 43.30733 39.61985 9147 ft 233 kts 187°
2026-04-23 16:41 43.29062 39.61857 9706 ft 245 kts 188°
2026-04-23 16:41 43.27311 39.61715 10150 ft 261 kts 188°
2026-04-23 16:42 43.25523 39.61579 11043 ft 256 kts 188°
2026-04-23 16:42 43.23801 39.61459 12099 ft 245 kts 190°
2026-04-23 16:42 43.22150 39.61338 12956 ft 240 kts 191°
2026-04-23 16:42 43.20490 39.61206 13643 ft 240 kts 192°
2026-04-23 16:43 43.18842 39.61074 14303 ft 241 kts 192°
2026-04-23 16:43 43.17167 39.60939 14971 ft 242 kts 192°
2026-04-23 16:43 43.15508 39.60811 15670 ft 241 kts 193°
2026-04-23 16:43 43.13858 39.60683 16351 ft 239 kts 193°
2026-04-23 16:44 43.12187 39.60553 17002 ft 240 kts 194°
2026-04-23 16:44 43.10825 39.60452 17521 ft 240 kts 192°
2026-04-23 16:44 43.09027 39.60894 18173 ft 263 kts 167°
2026-04-23 16:44 43.07441 39.62592 18816 ft 294 kts 140°
2026-04-23 16:45 43.06511 39.65192 19403 ft 316 kts 120°
2026-04-23 16:45 43.05859 39.68091 19888 ft 324 kts 117°
2026-04-23 16:45 43.05230 39.71073 20350 ft 329 kts 118°
2026-04-23 16:45 43.04589 39.74052 20855 ft 331 kts 118°
2026-04-23 16:46 43.03912 39.77095 21366 ft 333 kts 119°
2026-04-23 16:46 43.03235 39.80071 21866 ft 336 kts 120°
2026-04-23 16:46 43.02528 39.83139 22329 ft 339 kts 120°
2026-04-23 16:46 43.01814 39.86206 22774 ft 343 kts 120°
2026-04-23 16:47 43.01086 39.89325 23250 ft 346 kts 120°
2026-04-23 16:47 43.00352 39.92469 23686 ft 350 kts 120°
2026-04-23 16:47 42.99644 39.95506 24156 ft 352 kts 120°
2026-04-23 16:47 42.98900 39.98700 24584 ft 356 kts 120°
2026-04-23 16:48 42.98183 40.01931 25060 ft 359 kts 118°
2026-04-23 16:48 42.97472 40.05233 25420 ft 365 kts 118°
2026-04-23 16:48 42.96759 40.08570 25811 ft 369 kts 118°
2026-04-23 16:48 42.96041 40.11909 26191 ft 374 kts 118°
2026-04-23 16:49 42.95553 40.14179 26467 ft 375 kts 117°
2026-04-23 16:49 42.94572 40.18735 27014 ft 379 kts 117°
2026-04-23 16:49 42.93819 40.22210 27410 ft 382 kts 117°
2026-04-23 16:49 42.93064 40.25687 27764 ft 386 kts 117°
2026-04-23 16:50 42.92304 40.29174 28092 ft 391 kts 117°
2026-04-23 16:50 42.91523 40.32755 28463 ft 395 kts 117°
2026-04-23 16:50 42.90743 40.36319 28908 ft 398 kts 117°
2026-04-23 16:50 42.89944 40.39968 29306 ft 402 kts 116°
2026-04-23 16:51 42.89140 40.43610 29743 ft 404 kts 117°
2026-04-23 16:51 42.88323 40.47262 30140 ft 408 kts 117°
2026-04-23 16:51 42.87497 40.50980 30536 ft 412 kts 117°
2026-04-23 16:51 42.86669 40.54699 30960 ft 415 kts 117°
2026-04-23 16:52 42.85822 40.58503 31340 ft 418 kts 117°
2026-04-23 16:52 42.84979 40.62300 31700 ft 422 kts 116°
2026-04-23 16:52 42.84135 40.66098 32016 ft 426 kts 117°
2026-04-23 16:52 42.83285 40.69957 32355 ft 429 kts 117°
2026-04-23 16:53 42.82429 40.73838 32709 ft 431 kts 116°
2026-04-23 16:53 42.81565 40.77730 33030 ft 433 kts 116°
2026-04-23 16:53 42.80683 40.81687 33308 ft 436 kts 116°
2026-04-23 16:53 42.79805 40.85615 33550 ft 440 kts 116°
2026-04-23 16:54 42.78921 40.89585 33857 ft 441 kts 116°
2026-04-23 16:54 42.78022 40.93608 34200 ft 442 kts 116°
2026-04-23 16:54 42.77129 40.97572 34439 ft 445 kts 115°
2026-04-23 16:54 42.76225 41.01587 34677 ft 448 kts 115°
2026-04-23 16:55 42.75313 41.05639 34929 ft 450 kts 116°
2026-04-23 16:55 42.74378 41.09760 34970 ft 458 kts 115°
2026-04-23 16:55 42.72474 41.18125 34986 ft 475 kts 115°
2026-04-23 16:56 42.70494 41.26831 34980 ft 482 kts 115°
2026-04-23 16:56 42.68525 41.35490 34979 ft 483 kts 114°
2026-04-23 16:57 42.66537 41.44170 34978 ft 483 kts 114°
2026-04-23 16:57 42.64542 41.52841 34977 ft 483 kts 114°
2026-04-23 16:58 42.62535 41.61523 34971 ft 484 kts 114°
2026-04-23 16:58 42.60519 41.70244 34970 ft 484 kts 115°
2026-04-23 16:59 42.58516 41.78883 34967 ft 483 kts 115°
2026-04-23 16:59 42.56503 41.87505 34963 ft 483 kts 115°
2026-04-23 17:00 42.54464 41.96183 34960 ft 484 kts 114°
2026-04-23 17:00 42.52412 42.04897 34950 ft 485 kts 115°
2026-04-23 17:01 42.50367 42.13546 34950 ft 484 kts 114°
2026-04-23 17:01 42.48305 42.22231 34944 ft 485 kts 115°
2026-04-23 17:02 42.46244 42.30887 34942 ft 485 kts 114°
2026-04-23 17:02 42.44167 42.39575 34930 ft 485 kts 114°
2026-04-23 17:03 42.42079 42.48252 34916 ft 486 kts 114°
2026-04-23 17:03 42.40001 42.56887 34909 ft 485 kts 114°
2026-04-23 17:04 42.37920 42.65508 34911 ft 483 kts 115°
2026-04-23 17:04 42.35831 42.74144 34905 ft 483 kts 114°
2026-04-23 17:05 42.33740 42.82736 34912 ft 484 kts 114°
2026-04-23 17:05 42.31636 42.91350 34901 ft 482 kts 114°
2026-04-23 17:06 42.29540 42.99886 34890 ft 482 kts 114°
2026-04-23 17:06 42.27434 43.08448 34890 ft 483 kts 114°
2026-04-23 17:07 42.25341 43.17078 34888 ft 483 kts 113°
2026-04-23 17:07 42.23260 43.25684 34910 ft 483 kts 113°
2026-04-23 17:08 42.21179 43.34266 34893 ft 484 kts 114°
2026-04-23 17:08 42.19087 43.42855 34859 ft 483 kts 114°
2026-04-23 17:09 42.18045 43.47106 34482 ft 477 kts 113°
2026-04-23 17:09 42.17021 43.51291 33356 ft 481 kts 113°
2026-04-23 17:09 42.15962 43.55559 31741 ft 493 kts 112°
2026-04-23 17:09 42.14869 43.59980 30058 ft 499 kts 112°
2026-04-23 17:10 42.13786 43.64375 28669 ft 495 kts 111°
2026-04-23 17:10 42.12738 43.68660 27710 ft 481 kts 112°
2026-04-23 17:10 42.11713 43.72855 27012 ft 462 kts 112°
2026-04-23 17:10 42.10725 43.76895 25972 ft 453 kts 113°
2026-04-23 17:11 42.09752 43.80831 25278 ft 438 kts 113°
2026-04-23 17:11 42.08792 43.84688 24920 ft 434 kts 113°
2026-04-23 17:11 42.07837 43.88516 24873 ft 434 kts 113°
2026-04-23 17:11 42.06878 43.92345 24867 ft 433 kts 113°
2026-04-23 17:12 42.05928 43.96148 24867 ft 433 kts 113°
2026-04-23 17:12 42.04966 43.99998 24863 ft 432 kts 113°
2026-04-23 17:12 42.04006 44.03819 24865 ft 431 kts 113°
2026-04-23 17:12 42.03046 44.07644 24864 ft 432 kts 113°
2026-04-23 17:13 42.02046 44.11417 24856 ft 429 kts 118°
2026-04-23 17:13 42.00665 44.14925 24861 ft 422 kts 129°
2026-04-23 17:13 41.98951 44.18043 24696 ft 415 kts 134°
2026-04-23 17:13 41.97145 44.21057 23822 ft 416 kts 135°
2026-04-23 17:14 41.95329 44.24041 22616 ft 416 kts 135°
2026-04-23 17:14 41.93528 44.27027 21706 ft 407 kts 135°
2026-04-23 17:14 41.91799 44.29923 21135 ft 393 kts 135°
2026-04-23 17:14 41.90093 44.32788 20881 ft 391 kts 135°
2026-04-23 17:15 41.88384 44.35641 20869 ft 391 kts 135°
2026-04-23 17:15 41.86685 44.38469 20846 ft 392 kts 135°
2026-04-23 17:15 41.84996 44.41294 20841 ft 392 kts 135°
2026-04-23 17:15 41.83331 44.44083 20842 ft 393 kts 135°
2026-04-23 17:16 41.81627 44.46942 20860 ft 393 kts 134°
2026-04-23 17:16 41.79917 44.49816 20845 ft 392 kts 134°
2026-04-23 17:16 41.78226 44.52661 20549 ft 389 kts 134°
2026-04-23 17:16 41.76565 44.55449 19605 ft 391 kts 135°
2026-04-23 17:17 41.74866 44.58291 18247 ft 396 kts 134°
2026-04-23 17:17 41.73164 44.61131 16788 ft 401 kts 134°
2026-04-23 17:17 41.71999 44.63073 15740 ft 404 kts 134°
2026-04-23 17:17 41.69669 44.66957 13606 ft 406 kts 135°
2026-04-23 17:18 41.66245 44.72680 11155 ft 382 kts 134°
2026-04-23 17:18 41.64644 44.75360 10181 ft 368 kts 134°
2026-04-23 17:18 41.63050 44.78008 8678 ft 368 kts 133°
2026-04-23 17:19 41.61467 44.80615 7224 ft 365 kts 131°
2026-04-23 17:19 41.59929 44.83157 6141 ft 351 kts 131°
2026-04-23 17:19 41.58429 44.85644 5324 ft 331 kts 130°
2026-04-23 17:19 41.57042 44.87943 4805 ft 308 kts 130°
2026-04-23 17:20 41.55778 44.90041 4559 ft 280 kts 129°
2026-04-23 17:20 41.53561 44.93725 4522 ft 237 kts 130°
2026-04-23 17:21 41.51647 44.96897 4511 ft 212 kts 130°
2026-04-23 17:21 41.50711 44.98441 4521 ft 212 kts 130°
2026-04-23 17:21 41.48866 45.01480 4536 ft 211 kts 130°
2026-04-23 17:22 41.47941 45.03001 4531 ft 210 kts 130°
2026-04-23 17:22 41.46974 45.06509 4420 ft 209 kts 79°
2026-04-23 17:23 41.48436 45.09439 4073 ft 184 kts 47°
2026-04-23 17:23 41.49364 45.10685 4080 ft 193 kts 46°
2026-04-23 17:23 41.51443 45.12897 4027 ft 194 kts 14°
2026-04-23 17:24 41.52769 45.12790 4056 ft 191 kts 340°
2026-04-23 17:24 41.53812 45.11838 4060 ft 176 kts 317°
2026-04-23 17:24 41.55529 45.09575 4036 ft 173 kts 314°
2026-04-23 17:25 41.57259 45.07315 3793 ft 172 kts 316°
2026-04-23 17:25 41.58127 45.06211 3566 ft 172 kts 317°
2026-04-23 17:26 41.59856 45.04025 3120 ft 171 kts 317°
2026-04-23 17:26 41.61572 45.01854 2681 ft 167 kts 317°
2026-04-23 17:27 41.63256 44.99727 2235 ft 167 kts 317°
2026-04-23 17:27 41.64103 44.98657 2015 ft 167 kts 317°
2026-04-23 17:27 41.64928 44.97614 1791 ft 165 kts 317°
2026-04-23 17:27 41.65760 44.96565 1583 ft 163 kts 317°
2026-04-23 17:28 41.66555 44.95556 1539 ft 139 kts 319°
2026-04-23 17:28 41.67120 44.94851 1554 ft 93 kts 317°
2026-04-23 17:28 41.67488 44.94385 1575 ft 47 kts 317°
2026-04-23 17:28 41.67670 44.94115 1577 ft 26 kts 308°
2026-04-23 17:29 41.67782 44.94061 1581 ft 10 kts 350°
2026-04-23 17:29 41.67820 44.94098 1585 ft 5 kts 62°
2026-04-23 17:29 41.67825 44.94112 1586 ft 0 kts 63°
2026-04-23 17:30 41.67824 44.94109 1586 ft 0 kts 63°
2026-04-23 17:31 41.67825 44.94110 1586 ft 1 kts 63°
2026-04-23 17:31 41.67838 44.94173 1589 ft 16 kts 89°
2026-04-23 17:31 41.67766 44.94323 1591 ft 19 kts 141°
2026-04-23 17:31 41.67664 44.94449 1587 ft 20 kts 135°
2026-04-23 17:32 41.67577 44.94604 1581 ft 19 kts 77°
2026-04-23 17:32 41.67638 44.94670 1586 ft 4 kts 72°
2026-04-23 17:32 41.67624 44.94745 1587 ft 14 kts 101°
2026-04-23 17:32 41.67651 44.94917 1592 ft 23 kts 86°
2026-04-23 17:33 41.67643 44.95072 1595 ft 14 kts 134°
2026-04-23 17:33 41.67580 44.95171 1592 ft 14 kts 144°
2026-04-23 17:33 41.67500 44.95274 1587 ft 17 kts 130°
2026-04-23 17:33 41.67414 44.95412 1582 ft 20 kts 130°
2026-04-23 17:34 41.67310 44.95558 1576 ft 22 kts 134°
2026-04-23 17:34 41.67204 44.95710 1575 ft 22 kts 133°
2026-04-23 17:34 41.67001 44.96022 1573 ft 20 kts 134°
2026-04-23 17:35 41.66944 44.96159 1572 ft 12 kts 48°
2026-04-23 17:35 41.66969 44.96198 1575 ft 0 kts 47°